JE0GNV-13 Weather Reports


time (UTC)temp
F
wind
direction
speed
knots
gust
knots
rain 1hr
in
rain 24hr
in
rain mn
in
humidity
%
barometer
mb
20260509162001 39 282 0.0 0.0 0.00 0.00 0.00 73 1016.0
20260509161000 40 282 0.0 0.0 0.00 0.00 0.00 71 1016.0
20260509160000 41 282 0.0 0.0 0.00 0.00 0.00 68 1016.0
20260509155000 41 282 0.0 0.0 0.00 0.00 0.00 66 1016.0
20260509154000 41 282 0.0 0.0 0.00 0.00 0.00 67 1016.0
20260509153001 40 282 0.0 0.0 0.00 0.00 0.00 69 1016.0
20260509152001 40 282 0.0 0.0 0.00 0.00 0.00 71 1016.1
20260509151001 40 282 0.0 0.0 0.00 0.00 0.00 73 1016.1
20260509150001 40 282 0.0 0.0 0.00 0.00 0.00 72 1015.9
20260509145001 40 282 0.0 0.0 0.00 0.00 0.00 71 1016.0
20260509144001 40 282 0.0 0.0 0.00 0.00 0.00 72 1016.0
20260509143000 40 282 0.0 0.0 0.00 0.00 0.00 71 1016.0
20260509142000 40 282 0.0 0.0 0.00 0.00 0.00 70 1015.8
20260509141000 40 282 0.0 0.0 0.00 0.00 0.00 71 1015.8
20260509140000 41 282 0.0 0.0 0.00 0.00 0.00 70 1015.7
20260509135001 42 282 0.0 0.0 0.00 0.00 0.00 68 1015.6
20260509134001 42 282 0.0 0.0 0.00 0.00 0.00 66 1015.6
20260509133000 43 282 0.0 0.0 0.00 0.00 0.00 63 1015.6
20260509132001 43 282 0.0 0.0 0.00 0.00 0.00 60 1015.5
20260509131000 42 282 0.0 0.0 0.00 0.00 0.00 62 1015.5
20260509130001 42 282 0.0 0.0 0.00 0.00 0.00 65 1015.3
20260509125001 43 282 0.0 0.0 0.00 0.00 0.00 65 1015.3
20260509124001 43 282 0.0 0.0 0.00 0.00 0.00 64 1015.3
20260509123002 44 282 0.0 0.0 0.00 0.00 0.00 65 1015.1
20260509122001 45 282 0.0 0.0 0.00 0.00 0.00 63 1015.0
20260509121001 45 282 0.0 0.0 0.00 0.00 0.00 62 1015.0
20260509120001 46 282 0.0 0.0 0.00 0.00 0.00 60 1014.9
20260509115001 47 282 0.0 0.0 0.00 0.00 0.00 57 1014.8
20260509114001 48 282 0.0 0.0 0.00 0.00 0.00 54 1014.8
20260509113000 49 282 0.0 0.0 0.00 0.00 0.00 50 1014.6
20260509112000 50 228 0.0 0.0 0.00 0.00 0.00 50 1014.4
20260509111001 51 228 0.0 0.0 0.00 0.00 0.00 47 1014.4
20260509110002 52 228 0.0 0.0 0.00 0.00 0.00 43 1013.9
20260509105002 53 96 0.0 0.0 0.00 0.00 0.00 43 1013.7
20260509104001 53 229 0.0 0.0 0.00 0.00 0.00 39 1013.7
20260509103001 54 334 0.0 0.0 0.00 0.00 0.00 38 1013.4
20260509102001 54 315 0.0 0.0 0.00 0.00 0.00 37 1013.5
20260509101001 54 304 0.0 0.0 0.00 0.00 0.00 37 1013.5
20260509100000 55 304 0.0 0.0 0.00 0.00 0.00 38 1013.2
20260509095000 55 296 0.0 0.0 0.00 0.00 0.00 37 1013.0
20260509094001 56 325 0.0 0.0 0.00 0.00 0.00 35 1013.0
20260509093000 56 271 0.0 0.0 0.00 0.00 0.00 33 1012.8
20260509092000 56 295 0.0 0.0 0.00 0.00 0.00 32 1012.7
20260509091000 57 220 0.0 0.0 0.00 0.00 0.00 31 1012.7
20260509090001 57 293 0.0 0.0 0.00 0.00 0.00 31 1012.5
20260509085000 58 276 0.0 0.0 0.00 0.00 0.00 30 1012.2
20260509084000 59 331 0.0 0.0 0.00 0.00 0.00 29 1012.2
20260509083001 60 296 0.0 0.0 0.00 0.00 0.00 29 1012.2
20260509082000 60 278 0.0 0.0 0.00 0.00 0.00 28 1012.0
20260509081001 61 350 0.0 0.0 0.00 0.00 0.00 27 1012.0
20260509080001 62 279 0.0 0.0 0.00 0.00 0.00 26 1011.8
20260509075001 62 248 0.0 0.0 0.00 0.00 0.00 27 1011.7
20260509074001 62 317 0.0 0.0 0.00 0.00 0.00 27 1011.7
20260509073001 62 297 0.0 0.0 0.00 0.00 0.00 27 1011.5
20260509072001 63 270 0.0 0.0 0.00 0.00 0.00 27 1011.3
20260509071001 63 339 0.0 0.0 0.00 0.00 0.00 26 1011.3
20260509070001 63 267 0.0 0.0 0.00 0.00 0.00 27 1011.1
20260509065001 63 265 0.0 0.0 0.00 0.00 0.00 27 1010.8
20260509064002 63 239 0.0 0.0 0.00 0.00 0.00 26 1010.8
20260509063002 64 340 0.0 0.0 0.00 0.00 0.00 26 1010.8
20260509062001 64 188 0.0 0.0 0.00 0.00 0.00 26 1010.7
20260509061001 64 295 0.0 0.0 0.00 0.00 0.00 27 1010.7
20260509060002 64 275 0.0 0.0 0.00 0.00 0.00 26 1010.6
20260509055000 64 203 0.0 0.0 0.00 0.00 0.00 29 1010.4
20260509054001 65 226 0.0 0.0 0.00 0.00 0.00 27 1010.4
20260509053001 65 11 0.0 0.0 0.00 0.00 0.00 28 1010.6
20260509052002 65 316 0.0 0.0 0.00 0.00 0.00 27 1010.7
20260509051000 65 305 0.0 0.0 0.00 0.00 0.00 29 1010.7
20260509050001 65 284 0.0 0.0 0.00 0.00 0.00 38 1010.5
20260509045000 65 123 0.0 0.0 0.00 0.00 0.00 36 1010.7
20260509044000 64 159 0.0 0.0 0.00 0.00 0.00 41 1010.7
20260509043000 64 201 0.0 0.0 0.00 0.00 0.00 37 1010.8
20260509042000 64 128 0.0 0.0 0.00 0.00 0.00 42 1010.8
20260509041001 65 102 0.0 0.0 0.00 0.00 0.00 39 1010.8
20260509040001 64 106 0.0 0.0 0.00 0.00 0.00 41 1010.7
20260509035001 63 131 0.0 0.0 0.00 0.00 0.00 42 1010.7
20260509034000 62 128 0.0 0.0 0.00 0.00 0.00 44 1010.7
20260509033001 62 259 0.0 0.0 0.00 0.00 0.00 44 1010.7
20260509032000 61 288 0.0 0.0 0.00 0.00 0.00 44 1010.7
20260509031000 61 146 0.0 0.0 0.00 0.00 0.00 47 1010.7
20260509030000 60 324 0.0 0.0 0.00 0.00 0.00 47 1010.9
20260509025001 59 119 0.0 0.0 0.00 0.00 0.00 46 1010.8
20260509024001 58 261 0.0 0.0 0.00 0.00 0.00 48 1010.8
20260509023001 58 218 0.0 0.0 0.00 0.00 0.00 47 1010.9
20260509022000 58 96 0.0 0.0 0.00 0.00 0.00 49 1011.0
20260509021000 58 208 0.0 0.0 0.00 0.00 0.00 50 1011.0
20260509020000 58 144 0.0 0.0 0.00 0.00 0.00 50 1011.0
20260509015002 59 117 0.0 0.0 0.00 0.00 0.00 51 1011.2
20260509014001 58 141 0.0 0.0 0.00 0.00 0.00 50 1011.2
20260509013000 59 214 0.0 0.0 0.00 0.00 0.00 51 1010.9
20260509012001 59 154 0.0 0.0 0.00 0.00 0.00 50 1011.0
20260509011001 59 176 0.0 0.0 0.00 0.00 0.00 52 1011.0
20260509010001 58 112 0.0 0.0 0.00 0.00 0.00 52 1011.0
20260509005001 57 132 0.0 0.0 0.00 0.00 0.00 54 1011.0
20260509004001 58 142 0.0 0.0 0.00 0.00 0.00 54 1011.0
20260509003002 58 126 0.0 0.0 0.00 0.00 0.00 53 1010.7
20260509002000 57 130 0.0 0.0 0.00 0.00 0.00 52 1010.5
20260509001002 56 244 0.0 0.0 0.00 0.00 0.00 55 1010.4
20260509000002 56 205 0.0 0.0 0.00 0.00 0.00 51 1010.2
20260508235001 57 296 0.0 0.0 0.00 0.00 0.00 49 1010.0
20260508234000 57 157 0.0 0.0 0.00 0.00 0.00 50 1009.9
20260508233001 57 129 0.0 0.0 0.00 0.00 0.00 48 1009.7
20260508232002 57 142 0.0 0.0 0.00 0.00 0.00 49 1009.7
20260508231002 56 141 0.0 0.0 0.00 0.01 0.00 46 1009.7
20260508230002 56 331 0.0 0.0 0.00 0.02 0.00 49 1009.4
20260508225002 54 298 0.0 0.0 0.00 0.03 0.00 51 1009.3
20260508224000 53 291 0.0 0.0 0.00 0.03 0.00 52 1009.3
20260508223002 52 287 0.0 0.0 0.00 0.03 0.00 52 1009.2
20260508222001 51 233 0.0 0.0 0.00 0.03 0.00 54 1008.9
20260508221000 51 306 0.0 0.0 0.00 0.03 0.00 55 1008.9
20260508220001 50 270 0.0 0.0 0.00 0.03 0.00 57 1008.9
20260508215001 50 291 0.0 0.0 0.00 0.03 0.00 55 1008.7
20260508214000 50 140 0.0 0.0 0.00 0.03 0.00 58 1008.7
20260508213001 49 104 0.0 0.0 0.00 0.03 0.00 60 1008.4
20260508212001 48 220 0.0 0.0 0.00 0.03 0.00 61 1008.5
20260508211001 47 99 0.0 0.0 0.00 0.03 0.00 61 1008.5
20260508210001 47 184 0.0 0.0 0.00 0.03 0.00 62 1008.4
20260508205001 46 192 0.0 0.0 0.00 0.03 0.00 62 1008.1
20260508204002 46 237 0.0 0.0 0.00 0.03 0.00 61 1008.1
20260508203001 46 257 0.0 0.0 0.00 0.03 0.00 60 1007.9
20260508202000 46 214 0.0 0.0 0.00 0.03 0.00 60 1007.8
20260508201001 45 198 0.0 0.0 0.00 0.03 0.00 60 1007.8
20260508200000 45 144 0.0 0.0 0.00 0.03 0.00 60 1007.7
20260508195000 44 99 0.0 0.0 0.00 0.03 0.00 60 1007.8
20260508194001 44 309 0.0 0.0 0.00 0.03 0.00 60 1007.8
20260508193001 44 259 0.0 0.0 0.00 0.03 0.00 62 1007.5
20260508192001 44 113 0.0 0.0 0.00 0.03 0.00 63 1007.3
20260508191002 44 301 0.0 0.0 0.00 0.03 0.00 61 1007.3
20260508190002 44 113 0.0 0.0 0.00 0.03 0.00 59 1007.5
20260508185001 45 113 0.0 0.0 0.00 0.03 0.00 57 1007.4
20260508184001 45 143 0.0 0.0 0.00 0.03 0.00 56 1007.4
20260508183000 46 113 0.0 0.0 0.00 0.03 0.00 52 1007.3
20260508182001 46 194 0.0 0.0 0.00 0.03 0.00 52 1007.3
20260508181000 46 230 0.0 0.0 0.00 0.03 0.00 50 1007.3
20260508180000 46 209 0.0 0.0 0.00 0.03 0.00 50 1006.9
20260508175001 46 246 0.0 0.0 0.00 0.03 0.00 48 1007.1
20260508174002 47 131 0.0 0.0 0.00 0.03 0.00 47 1007.1
20260508173000 47 129 0.0 0.0 0.00 0.03 0.00 47 1007.2
20260508172000 47 224 0.0 0.0 0.00 0.03 0.00 47 1007.3
20260508171001 47 83 0.0 0.0 0.00 0.03 0.00 47 1007.3
20260508170000 47 115 0.0 0.0 0.00 0.03 0.00 47 1007.4
20260508165000 46 125 0.0 0.0 0.00 0.03 0.00 48 1007.2
20260508164001 46 125 0.0 0.0 0.00 0.03 0.00 48 1007.2
20260508163001 47 130 0.0 0.0 0.00 0.03 0.00 48 1007.1